Year,Month,Day,Hour,Minute,Value (Times are PST for temperature in C)
2009,07,31,00,00,21.20
2009,07,31,00,01,21.20
2009,07,31,00,02,21.20
2009,07,31,00,03,21.20
2009,07,31,00,04,21.20
2009,07,31,00,05,21.20
2009,07,31,00,06,21.20
2009,07,31,00,07,21.20
2009,07,31,00,08,21.20
2009,07,31,00,09,21.20
2009,07,31,00,10,21.20
2009,07,31,00,11,21.20
2009,07,31,00,12,21.10
2009,07,31,00,13,21.10
2009,07,31,00,14,21.10
2009,07,31,00,15,21.10
2009,07,31,00,16,21.10
2009,07,31,00,17,21.00
2009,07,31,00,18,21.00
2009,07,31,00,19,21.00
2009,07,31,00,20,21.00
2009,07,31,00,21,21.00
2009,07,31,00,22,21.00
2009,07,31,00,23,21.00
2009,07,31,00,24,21.00
2009,07,31,00,25,20.90
2009,07,31,00,26,20.90
2009,07,31,00,27,20.90
2009,07,31,00,28,20.90
2009,07,31,00,29,20.90
2009,07,31,00,30,20.90
2009,07,31,00,31,20.90
2009,07,31,00,32,20.90
2009,07,31,00,33,20.90
2009,07,31,00,34,20.90
2009,07,31,00,35,20.90
2009,07,31,00,36,20.90
2009,07,31,00,37,20.90
2009,07,31,00,38,20.90
2009,07,31,00,39,20.90
2009,07,31,00,40,20.90
2009,07,31,00,41,20.80
2009,07,31,00,42,20.80
2009,07,31,00,43,20.80
2009,07,31,00,44,20.80
2009,07,31,00,45,20.70
2009,07,31,00,46,20.70
2009,07,31,00,47,20.70
2009,07,31,00,48,20.70
2009,07,31,00,49,20.60
2009,07,31,00,50,20.60
2009,07,31,00,51,20.60
2009,07,31,00,52,20.60
2009,07,31,00,53,20.60
2009,07,31,00,54,20.60
2009,07,31,00,55,20.50
2009,07,31,00,56,20.50
2009,07,31,00,57,20.50
2009,07,31,00,58,20.50
2009,07,31,00,59,20.50
2009,07,31,01,00,20.50
2009,07,31,01,01,20.40
2009,07,31,01,02,20.40
2009,07,31,01,03,20.40
2009,07,31,01,04,20.40
2009,07,31,01,05,20.40
2009,07,31,01,06,20.40
2009,07,31,01,07,20.30
2009,07,31,01,08,20.20
2009,07,31,01,09,20.20
2009,07,31,01,10,20.10
2009,07,31,01,11,20.10
2009,07,31,01,12,20.10
2009,07,31,01,13,20.00
2009,07,31,01,14,19.90
2009,07,31,01,15,19.90
2009,07,31,01,16,19.90
2009,07,31,01,17,19.80
2009,07,31,01,18,19.70
2009,07,31,01,19,19.60
2009,07,31,01,20,19.60
2009,07,31,01,21,19.50
2009,07,31,01,22,19.50
2009,07,31,01,23,19.40
2009,07,31,01,24,19.40
2009,07,31,01,25,19.30
2009,07,31,01,26,19.30
2009,07,31,01,27,19.30
2009,07,31,01,28,19.20
2009,07,31,01,29,19.20
2009,07,31,01,30,19.20
2009,07,31,01,31,19.20
2009,07,31,01,32,19.10
2009,07,31,01,33,19.10
2009,07,31,01,34,19.10
2009,07,31,01,35,19.10
2009,07,31,01,36,19.00
2009,07,31,01,37,18.90
2009,07,31,01,38,18.90
2009,07,31,01,39,18.90
2009,07,31,01,40,18.90
2009,07,31,01,41,18.90
2009,07,31,01,42,18.80
2009,07,31,01,43,18.80
2009,07,31,01,44,18.80
2009,07,31,01,45,18.70
2009,07,31,01,46,18.70
2009,07,31,01,47,18.70
2009,07,31,01,48,18.70
2009,07,31,01,49,18.70
2009,07,31,01,50,18.70
2009,07,31,01,51,18.70
2009,07,31,01,52,18.60
2009,07,31,01,53,18.60
2009,07,31,01,54,18.60
2009,07,31,01,55,18.60
2009,07,31,01,56,18.60
2009,07,31,01,57,18.60
2009,07,31,01,58,18.50
2009,07,31,01,59,18.50
2009,07,31,02,00,18.50
2009,07,31,02,01,18.50
2009,07,31,02,02,18.50
2009,07,31,02,03,18.50
2009,07,31,02,04,18.50
2009,07,31,02,05,18.50
2009,07,31,02,06,18.60
2009,07,31,02,07,18.60
2009,07,31,02,08,18.60
2009,07,31,02,09,18.60
2009,07,31,02,10,18.60
2009,07,31,02,11,18.60
2009,07,31,02,12,18.60
2009,07,31,02,13,18.60
2009,07,31,02,14,18.70
2009,07,31,02,15,18.70
2009,07,31,02,16,18.70
2009,07,31,02,17,18.80
2009,07,31,02,18,18.80
2009,07,31,02,19,18.80
2009,07,31,02,20,18.90
2009,07,31,02,21,18.90
2009,07,31,02,22,18.90
2009,07,31,02,23,18.90
2009,07,31,02,24,18.90
2009,07,31,02,25,18.90
2009,07,31,02,26,18.90
2009,07,31,02,27,18.90
2009,07,31,02,28,18.90
2009,07,31,02,29,18.90
2009,07,31,02,30,18.90
2009,07,31,02,31,18.90
2009,07,31,02,32,18.90
2009,07,31,02,33,18.90
2009,07,31,02,34,18.90
2009,07,31,02,35,18.90
2009,07,31,02,36,18.90
2009,07,31,02,37,18.90
2009,07,31,02,38,18.90
2009,07,31,02,39,18.90
2009,07,31,02,40,18.90
2009,07,31,02,41,18.90
2009,07,31,02,42,18.90
2009,07,31,02,43,18.90
2009,07,31,02,44,18.90
2009,07,31,02,45,18.90
2009,07,31,02,46,18.90
2009,07,31,02,47,18.90
2009,07,31,02,48,18.90
2009,07,31,02,49,18.90
2009,07,31,02,50,18.90
2009,07,31,02,51,18.80
2009,07,31,02,52,18.80
2009,07,31,02,53,18.80
2009,07,31,02,54,18.70
2009,07,31,02,55,18.70
2009,07,31,02,56,18.70
2009,07,31,02,57,18.60
2009,07,31,02,58,18.60
2009,07,31,02,59,18.50
2009,07,31,03,00,18.50
2009,07,31,03,01,18.40
2009,07,31,03,02,18.40
2009,07,31,03,03,18.30
2009,07,31,03,04,18.30
2009,07,31,03,05,18.20
2009,07,31,03,06,18.20
2009,07,31,03,07,18.20
2009,07,31,03,08,18.20
2009,07,31,03,09,18.20
2009,07,31,03,10,18.20
2009,07,31,03,11,18.20
2009,07,31,03,12,18.10
2009,07,31,03,13,18.10
2009,07,31,03,14,18.10
2009,07,31,03,15,18.00
2009,07,31,03,16,17.90
2009,07,31,03,17,17.90
2009,07,31,03,18,17.90
2009,07,31,03,19,17.90
2009,07,31,03,20,17.90
2009,07,31,03,21,17.90
2009,07,31,03,22,17.90
2009,07,31,03,23,17.90
2009,07,31,03,24,17.90
2009,07,31,03,25,17.90
2009,07,31,03,26,17.90
2009,07,31,03,27,17.90
2009,07,31,03,28,17.90
2009,07,31,03,29,18.00
2009,07,31,03,30,18.10
2009,07,31,03,31,18.00
2009,07,31,03,32,17.90
2009,07,31,03,33,17.90
2009,07,31,03,34,17.90
2009,07,31,03,35,17.90
2009,07,31,03,36,17.90
2009,07,31,03,37,17.90
2009,07,31,03,38,17.90
2009,07,31,03,39,17.80
2009,07,31,03,40,17.80
2009,07,31,03,41,17.80
2009,07,31,03,42,17.70
2009,07,31,03,43,17.70
2009,07,31,03,44,17.70
2009,07,31,03,45,17.70
2009,07,31,03,46,17.60
2009,07,31,03,47,17.60
2009,07,31,03,48,17.60
2009,07,31,03,49,17.60
2009,07,31,03,50,17.50
2009,07,31,03,51,17.50
2009,07,31,03,52,17.50
2009,07,31,03,53,17.50
2009,07,31,03,54,17.50
2009,07,31,03,55,17.40
2009,07,31,03,56,17.40
2009,07,31,03,57,17.40
2009,07,31,03,58,17.40
2009,07,31,03,59,17.30
2009,07,31,04,00,17.30
2009,07,31,04,01,17.30
2009,07,31,04,02,17.20
2009,07,31,04,03,17.20
2009,07,31,04,04,17.20
2009,07,31,04,05,17.20
2009,07,31,04,06,17.10
2009,07,31,04,07,17.10
2009,07,31,04,08,17.10
2009,07,31,04,09,17.10
2009,07,31,04,10,17.00
2009,07,31,04,11,17.00
2009,07,31,04,12,17.00
2009,07,31,04,13,17.00
2009,07,31,04,14,17.00
2009,07,31,04,15,17.00
2009,07,31,04,16,16.90
2009,07,31,04,17,16.90
2009,07,31,04,18,16.90
2009,07,31,04,19,16.90
2009,07,31,04,20,16.90
2009,07,31,04,21,16.90
2009,07,31,04,22,16.80
2009,07,31,04,23,16.80
2009,07,31,04,24,16.80
2009,07,31,04,25,16.70
2009,07,31,04,26,16.70
2009,07,31,04,27,16.70
2009,07,31,04,28,16.70
2009,07,31,04,29,16.70
2009,07,31,04,30,16.70
2009,07,31,04,31,16.60
2009,07,31,04,32,16.60
2009,07,31,04,33,16.60
2009,07,31,04,34,16.50
2009,07,31,04,35,16.40
2009,07,31,04,36,16.40
2009,07,31,04,37,16.40
2009,07,31,04,38,16.40
2009,07,31,04,39,16.30
2009,07,31,04,40,16.30
2009,07,31,04,41,16.30
2009,07,31,04,42,16.20
2009,07,31,04,43,16.20
2009,07,31,04,44,16.20
2009,07,31,04,45,16.10
2009,07,31,04,46,16.10
2009,07,31,04,47,16.00
2009,07,31,04,48,15.90
2009,07,31,04,49,15.80
2009,07,31,04,50,15.80
2009,07,31,04,51,15.80
2009,07,31,04,52,15.70
2009,07,31,04,53,15.70
2009,07,31,04,54,15.70
2009,07,31,04,55,15.60
2009,07,31,04,56,15.60
2009,07,31,04,57,15.50
2009,07,31,04,58,15.50
2009,07,31,04,59,15.50
2009,07,31,05,00,15.40
2009,07,31,05,01,15.40
2009,07,31,05,02,15.30
2009,07,31,05,03,15.30
2009,07,31,05,04,15.30
2009,07,31,05,05,15.30
2009,07,31,05,06,15.30
2009,07,31,05,07,15.30
2009,07,31,05,08,15.30
2009,07,31,05,09,15.30
2009,07,31,05,10,15.30
2009,07,31,05,11,15.30
2009,07,31,05,12,15.30
2009,07,31,05,13,15.30
2009,07,31,05,14,15.30
2009,07,31,05,15,15.30
2009,07,31,05,16,15.30
2009,07,31,05,17,15.30
2009,07,31,05,18,15.30
2009,07,31,05,19,15.30
2009,07,31,05,20,15.30
2009,07,31,05,21,15.30
2009,07,31,05,22,15.30
2009,07,31,05,23,15.30
2009,07,31,05,24,15.30
2009,07,31,05,25,15.30
2009,07,31,05,26,15.30
2009,07,31,05,27,15.30
2009,07,31,05,28,15.30
2009,07,31,05,29,15.30
2009,07,31,05,30,15.20
2009,07,31,05,31,15.20
2009,07,31,05,32,15.20
2009,07,31,05,33,15.20
2009,07,31,05,34,15.20
2009,07,31,05,35,15.20
2009,07,31,05,36,15.10
2009,07,31,05,37,15.10
2009,07,31,05,38,15.10
2009,07,31,05,39,15.10
2009,07,31,05,40,15.10
2009,07,31,05,41,15.10
2009,07,31,05,42,15.10
2009,07,31,05,43,15.10
2009,07,31,05,44,15.10
2009,07,31,05,45,15.00
2009,07,31,05,46,15.00
2009,07,31,05,47,15.00
2009,07,31,05,48,15.00
2009,07,31,05,49,15.00
2009,07,31,05,50,15.00
2009,07,31,05,51,15.00
2009,07,31,05,52,15.00
2009,07,31,05,53,15.00
2009,07,31,05,54,14.90
2009,07,31,05,55,15.00
2009,07,31,05,56,15.00
2009,07,31,05,57,15.00
2009,07,31,05,58,15.00
2009,07,31,05,59,15.00
2009,07,31,06,00,15.00
2009,07,31,06,01,15.00
2009,07,31,06,02,15.00
2009,07,31,06,03,15.00
2009,07,31,06,04,15.00
2009,07,31,06,05,15.00
2009,07,31,06,06,15.00
2009,07,31,06,07,15.00
2009,07,31,06,08,15.00
2009,07,31,06,09,15.00
2009,07,31,06,10,15.00
2009,07,31,06,11,15.00
2009,07,31,06,12,15.00
2009,07,31,06,13,15.00
2009,07,31,06,14,15.00
2009,07,31,06,15,15.00
2009,07,31,06,16,15.00
2009,07,31,06,17,15.00
2009,07,31,06,18,14.90
2009,07,31,06,19,14.90
2009,07,31,06,20,14.90
2009,07,31,06,21,14.90
2009,07,31,06,22,14.90
2009,07,31,06,23,14.90
2009,07,31,06,24,14.90
2009,07,31,06,25,14.90
2009,07,31,06,26,14.90
2009,07,31,06,27,14.90
2009,07,31,06,28,14.90
2009,07,31,06,29,14.90
2009,07,31,06,30,14.90
2009,07,31,06,31,14.90
2009,07,31,06,32,14.90
2009,07,31,06,33,14.90
2009,07,31,06,34,14.90
2009,07,31,06,35,14.90
2009,07,31,06,36,14.80
2009,07,31,06,37,14.80
2009,07,31,06,38,14.80
2009,07,31,06,39,14.80
2009,07,31,06,40,14.80
2009,07,31,06,41,14.80
2009,07,31,06,42,14.80
2009,07,31,06,43,14.80
2009,07,31,06,44,14.80
2009,07,31,06,45,14.80
2009,07,31,06,46,14.80
2009,07,31,06,47,14.90
2009,07,31,06,48,14.90
2009,07,31,06,49,14.90
2009,07,31,06,50,14.90
2009,07,31,06,51,14.90
2009,07,31,06,52,14.90
2009,07,31,06,53,14.80
2009,07,31,06,54,14.80
2009,07,31,06,55,14.80
2009,07,31,06,56,14.80
2009,07,31,06,57,14.80
2009,07,31,06,58,14.80
2009,07,31,06,59,14.80
2009,07,31,07,00,14.80
2009,07,31,07,01,14.80
2009,07,31,07,02,14.80
2009,07,31,07,03,14.80
2009,07,31,07,04,14.90
2009,07,31,07,05,14.90
2009,07,31,07,06,14.90
2009,07,31,07,07,14.90
2009,07,31,07,08,14.90
2009,07,31,07,09,14.90
2009,07,31,07,10,15.00
2009,07,31,07,11,15.00
2009,07,31,07,12,15.00
2009,07,31,07,13,15.00
2009,07,31,07,14,15.00
2009,07,31,07,15,15.00
2009,07,31,07,16,15.00
2009,07,31,07,17,15.10
2009,07,31,07,18,15.10
2009,07,31,07,19,15.10
2009,07,31,07,20,15.10
2009,07,31,07,21,15.20
2009,07,31,07,22,15.20
2009,07,31,07,23,15.20
2009,07,31,07,24,15.20
2009,07,31,07,25,15.30
2009,07,31,07,26,15.30
2009,07,31,07,27,15.30
2009,07,31,07,28,15.30
2009,07,31,07,29,15.30
2009,07,31,07,30,15.30
2009,07,31,07,31,15.40
2009,07,31,07,32,15.40
2009,07,31,07,33,15.50
2009,07,31,07,34,15.50
2009,07,31,07,35,15.60
2009,07,31,07,36,15.60
2009,07,31,07,37,15.60
2009,07,31,07,38,15.70
2009,07,31,07,39,15.70
2009,07,31,07,40,15.70
2009,07,31,07,41,15.80
2009,07,31,07,42,15.80
2009,07,31,07,43,15.90
2009,07,31,07,44,16.00
2009,07,31,07,45,16.10
2009,07,31,07,46,16.10
2009,07,31,07,47,16.10
2009,07,31,07,48,16.10
2009,07,31,07,49,16.10
2009,07,31,07,50,16.10
2009,07,31,07,51,16.10
2009,07,31,07,52,16.10
2009,07,31,07,53,16.20
2009,07,31,07,54,16.30
2009,07,31,07,55,16.40
2009,07,31,07,56,16.40
2009,07,31,07,57,16.40
2009,07,31,07,58,16.40
2009,07,31,07,59,16.50
2009,07,31,08,00,16.60
2009,07,31,08,01,16.60
2009,07,31,08,02,16.70
2009,07,31,08,03,16.70
2009,07,31,08,04,16.70
2009,07,31,08,05,16.80
2009,07,31,08,06,16.80
2009,07,31,08,07,16.80
2009,07,31,08,08,16.80
2009,07,31,08,09,16.80
2009,07,31,08,10,16.80
2009,07,31,08,11,16.90
2009,07,31,08,12,16.90
2009,07,31,08,13,17.00
2009,07,31,08,14,17.10
2009,07,31,08,15,17.20
2009,07,31,08,16,17.20
2009,07,31,08,17,17.30
2009,07,31,08,18,17.30
2009,07,31,08,19,17.30
2009,07,31,08,20,17.20
2009,07,31,08,21,17.20
2009,07,31,08,22,17.20
2009,07,31,08,23,17.20
2009,07,31,08,24,17.30
2009,07,31,08,25,17.30
2009,07,31,08,26,17.40
2009,07,31,08,27,17.40
2009,07,31,08,28,17.40
2009,07,31,08,29,17.40
2009,07,31,08,30,17.30
2009,07,31,08,31,17.30
2009,07,31,08,32,17.30
2009,07,31,08,33,17.30
2009,07,31,08,34,17.40
2009,07,31,08,35,17.40
2009,07,31,08,36,17.50
2009,07,31,08,37,17.50
2009,07,31,08,38,17.50
2009,07,31,08,39,17.50
2009,07,31,08,40,17.50
2009,07,31,08,41,17.60
2009,07,31,08,42,17.60
2009,07,31,08,43,17.70
2009,07,31,08,44,17.80
2009,07,31,08,45,17.80
2009,07,31,08,46,17.90
2009,07,31,08,47,17.90
2009,07,31,08,48,18.00
2009,07,31,08,49,18.10
2009,07,31,08,50,18.20
2009,07,31,08,51,18.40
2009,07,31,08,52,18.50
2009,07,31,08,53,18.50
2009,07,31,08,54,18.60
2009,07,31,08,55,18.60
2009,07,31,08,56,18.60
2009,07,31,08,57,18.60
2009,07,31,08,58,18.70
2009,07,31,08,59,18.80
2009,07,31,09,00,18.90
2009,07,31,09,01,18.90
2009,07,31,09,02,19.10
2009,07,31,09,03,19.10
2009,07,31,09,04,19.10
2009,07,31,09,05,19.10
2009,07,31,09,06,19.10
2009,07,31,09,07,19.10
2009,07,31,09,08,19.10
2009,07,31,09,09,19.10
2009,07,31,09,10,19.20
2009,07,31,09,11,19.20
2009,07,31,09,12,19.20
2009,07,31,09,13,19.20
2009,07,31,09,14,19.20
2009,07,31,09,15,19.20
2009,07,31,09,16,19.20
2009,07,31,09,17,19.10
2009,07,31,09,18,19.20
2009,07,31,09,19,19.20
2009,07,31,09,20,19.20
2009,07,31,09,21,19.20
2009,07,31,09,22,19.20
2009,07,31,09,23,19.10
2009,07,31,09,24,19.20
2009,07,31,09,25,19.20
2009,07,31,09,26,19.10
2009,07,31,09,27,19.10
2009,07,31,09,28,19.10
2009,07,31,09,29,19.10
2009,07,31,09,30,19.10
2009,07,31,09,31,19.10
2009,07,31,09,32,19.10
2009,07,31,09,33,19.10
2009,07,31,09,34,19.10
2009,07,31,09,35,19.10
2009,07,31,09,36,18.90
2009,07,31,09,37,18.90
2009,07,31,09,38,18.90
2009,07,31,09,39,18.90
2009,07,31,09,40,18.80
2009,07,31,09,41,18.80
2009,07,31,09,42,18.80
2009,07,31,09,43,18.90
2009,07,31,09,44,19.00
2009,07,31,09,45,19.10
2009,07,31,09,46,19.20
2009,07,31,09,47,19.30
2009,07,31,09,48,19.40
2009,07,31,09,49,19.60
2009,07,31,09,50,19.60
2009,07,31,09,51,19.80
2009,07,31,09,52,19.80
2009,07,31,09,53,19.90
2009,07,31,09,54,19.90
2009,07,31,09,55,19.90
2009,07,31,09,56,20.10
2009,07,31,09,57,20.10
2009,07,31,09,58,20.10
2009,07,31,09,59,20.10
2009,07,31,10,00,20.10
2009,07,31,10,01,20.10
2009,07,31,10,02,20.10
2009,07,31,10,03,20.10
2009,07,31,10,04,20.20
2009,07,31,10,05,20.20
2009,07,31,10,06,20.20
2009,07,31,10,07,20.10
2009,07,31,10,08,20.00
2009,07,31,10,09,19.90
2009,07,31,10,10,19.70
2009,07,31,10,11,19.70
2009,07,31,10,12,19.70
2009,07,31,10,13,19.70
2009,07,31,10,14,19.80
2009,07,31,10,15,19.80
2009,07,31,10,16,19.80
2009,07,31,10,17,19.80
2009,07,31,10,18,19.90
2009,07,31,10,19,20.00
2009,07,31,10,20,20.10
2009,07,31,10,21,20.20
2009,07,31,10,22,20.20
2009,07,31,10,23,20.20
2009,07,31,10,24,20.30
2009,07,31,10,25,20.30
2009,07,31,10,26,20.20
2009,07,31,10,27,20.20
2009,07,31,10,28,20.10
2009,07,31,10,29,20.10
2009,07,31,10,30,19.90
2009,07,31,10,31,20.00
2009,07,31,10,32,20.00
2009,07,31,10,33,19.90
2009,07,31,10,34,19.90
2009,07,31,10,35,20.00
2009,07,31,10,36,20.10
2009,07,31,10,37,20.00
2009,07,31,10,38,20.10
2009,07,31,10,39,20.20
2009,07,31,10,40,20.20
2009,07,31,10,41,20.30
2009,07,31,10,42,20.30
2009,07,31,10,43,20.50
2009,07,31,10,44,20.60
2009,07,31,10,45,20.60
2009,07,31,10,46,20.60
2009,07,31,10,47,20.60
2009,07,31,10,48,20.60
2009,07,31,10,49,20.60
2009,07,31,10,50,20.60
2009,07,31,10,51,20.60
2009,07,31,10,52,20.60
2009,07,31,10,53,20.70
2009,07,31,10,54,20.80
2009,07,31,10,55,20.70
2009,07,31,10,56,20.70
2009,07,31,10,57,20.70
2009,07,31,10,58,20.60
2009,07,31,10,59,20.70
2009,07,31,11,00,20.70
2009,07,31,11,01,20.80
2009,07,31,11,02,20.70
2009,07,31,11,03,20.70
2009,07,31,11,04,20.70
2009,07,31,11,05,20.40
2009,07,31,11,06,20.30
2009,07,31,11,07,20.40
2009,07,31,11,08,20.60
2009,07,31,11,09,20.60
2009,07,31,11,10,20.50
2009,07,31,11,11,20.50
2009,07,31,11,12,20.50
2009,07,31,11,13,20.50
2009,07,31,11,14,20.60
2009,07,31,11,15,20.60
2009,07,31,11,16,20.60
2009,07,31,11,17,20.60
2009,07,31,11,18,20.60
2009,07,31,11,19,20.60
2009,07,31,11,20,20.50
2009,07,31,11,21,20.60
2009,07,31,11,22,20.50
2009,07,31,11,23,20.40
2009,07,31,11,24,20.20
2009,07,31,11,25,20.10
2009,07,31,11,26,20.10
2009,07,31,11,27,20.10
2009,07,31,11,28,20.20
2009,07,31,11,29,20.20
2009,07,31,11,30,20.30
2009,07,31,11,31,20.30
2009,07,31,11,32,20.40
2009,07,31,11,33,20.40
2009,07,31,11,34,20.50
2009,07,31,11,35,20.50
2009,07,31,11,36,20.50
2009,07,31,11,37,20.40
2009,07,31,11,38,20.30
2009,07,31,11,39,20.30
2009,07,31,11,40,20.20
2009,07,31,11,41,20.10
2009,07,31,11,42,20.10
2009,07,31,11,43,20.20
2009,07,31,11,44,20.20
2009,07,31,11,45,20.20
2009,07,31,11,46,20.20
2009,07,31,11,47,20.00
2009,07,31,11,48,19.90
2009,07,31,11,49,19.80
2009,07,31,11,50,19.80
2009,07,31,11,51,19.80
2009,07,31,11,52,19.90
2009,07,31,11,53,19.90
2009,07,31,11,54,19.90
2009,07,31,11,55,20.00
2009,07,31,11,56,20.10
2009,07,31,11,57,20.20
2009,07,31,11,58,20.20
2009,07,31,11,59,20.20
2009,07,31,12,00,20.20
2009,07,31,12,01,20.20
2009,07,31,12,02,20.20
2009,07,31,12,03,20.20
2009,07,31,12,04,20.20
2009,07,31,12,05,20.20
2009,07,31,12,06,20.20
2009,07,31,12,07,20.10
2009,07,31,12,08,20.10
2009,07,31,12,09,20.30
2009,07,31,12,10,20.50
2009,07,31,12,11,20.50
2009,07,31,12,12,20.50
2009,07,31,12,13,20.80
2009,07,31,12,14,21.00
2009,07,31,12,15,21.10
2009,07,31,12,16,21.20
2009,07,31,12,17,21.30
2009,07,31,12,18,21.30
2009,07,31,12,19,21.40
2009,07,31,12,20,21.40
2009,07,31,12,21,21.50
2009,07,31,12,22,21.60
2009,07,31,12,23,21.60
2009,07,31,12,24,21.60
2009,07,31,12,25,21.40
2009,07,31,12,26,21.40
2009,07,31,12,27,21.40
2009,07,31,12,28,21.30
2009,07,31,12,29,21.40
2009,07,31,12,30,21.60
2009,07,31,12,31,21.60
2009,07,31,12,32,21.70
2009,07,31,12,33,21.70
2009,07,31,12,34,21.70
2009,07,31,12,35,21.70
2009,07,31,12,36,21.60
2009,07,31,12,37,21.60
2009,07,31,12,38,21.60
2009,07,31,12,39,21.70
2009,07,31,12,40,21.80
2009,07,31,12,41,21.80
2009,07,31,12,42,21.90
2009,07,31,12,43,21.90
2009,07,31,12,44,21.90
2009,07,31,12,45,22.00
2009,07,31,12,46,22.10
2009,07,31,12,47,22.10
2009,07,31,12,48,22.20
2009,07,31,12,49,22.30
2009,07,31,12,50,22.40
2009,07,31,12,51,22.50
2009,07,31,12,52,22.50
2009,07,31,12,53,22.60
2009,07,31,12,54,22.60
2009,07,31,12,55,22.50
2009,07,31,12,56,22.40
2009,07,31,12,57,22.40
2009,07,31,12,58,22.50
2009,07,31,12,59,22.60
2009,07,31,13,00,22.70
2009,07,31,13,01,22.60
2009,07,31,13,02,22.50
2009,07,31,13,03,22.50
2009,07,31,13,04,22.40
2009,07,31,13,05,22.40
2009,07,31,13,06,22.40
2009,07,31,13,07,22.50
2009,07,31,13,08,22.50
2009,07,31,13,09,22.50
2009,07,31,13,10,22.50
2009,07,31,13,11,22.60
2009,07,31,13,12,22.70
2009,07,31,13,13,22.80
2009,07,31,13,14,22.90
2009,07,31,13,15,22.90
2009,07,31,13,16,23.00
2009,07,31,13,17,23.10
2009,07,31,13,18,23.30
2009,07,31,13,19,23.40
2009,07,31,13,20,23.50
2009,07,31,13,21,23.60
2009,07,31,13,22,23.70
2009,07,31,13,23,23.80
2009,07,31,13,24,23.80
2009,07,31,13,25,23.80
2009,07,31,13,26,23.90
2009,07,31,13,27,24.00
2009,07,31,13,28,24.00
2009,07,31,13,29,23.90
2009,07,31,13,30,23.70
2009,07,31,13,31,23.70
2009,07,31,13,32,23.70
2009,07,31,13,33,23.80
2009,07,31,13,34,24.00
2009,07,31,13,35,24.10
2009,07,31,13,36,24.10
2009,07,31,13,37,24.20
2009,07,31,13,38,24.30
2009,07,31,13,39,24.30
2009,07,31,13,40,24.30
2009,07,31,13,41,24.30
2009,07,31,13,42,24.20
2009,07,31,13,43,24.00
2009,07,31,13,44,23.90
2009,07,31,13,45,23.80
2009,07,31,13,46,23.70
2009,07,31,13,47,23.70
2009,07,31,13,48,23.70
2009,07,31,13,49,23.70
2009,07,31,13,50,23.70
2009,07,31,13,51,23.70
2009,07,31,13,52,23.80
2009,07,31,13,53,23.80
2009,07,31,13,54,23.90
2009,07,31,13,55,23.90
2009,07,31,13,56,23.90
2009,07,31,13,57,23.80
2009,07,31,13,58,23.80
2009,07,31,13,59,23.90
2009,07,31,14,00,23.90
2009,07,31,14,01,24.10
2009,07,31,14,02,24.10
2009,07,31,14,03,24.10
2009,07,31,14,04,24.10
2009,07,31,14,05,24.20
2009,07,31,14,06,24.30
2009,07,31,14,07,24.30
2009,07,31,14,08,24.30
2009,07,31,14,09,24.20
2009,07,31,14,10,24.20
2009,07,31,14,11,24.30
2009,07,31,14,12,24.40
2009,07,31,14,13,24.50
2009,07,31,14,14,24.60
2009,07,31,14,15,24.70
2009,07,31,14,16,24.70
2009,07,31,14,17,24.80
2009,07,31,14,18,24.80
2009,07,31,14,19,24.90
2009,07,31,14,20,25.00
2009,07,31,14,21,25.10
2009,07,31,14,22,25.10
2009,07,31,14,23,25.00
2009,07,31,14,24,25.00
2009,07,31,14,25,25.10
2009,07,31,14,26,25.20
2009,07,31,14,27,25.10
2009,07,31,14,28,25.20
2009,07,31,14,29,25.30
2009,07,31,14,30,25.30
2009,07,31,14,31,25.40
2009,07,31,14,32,25.50
2009,07,31,14,33,25.70
2009,07,31,14,34,25.70
2009,07,31,14,35,25.80
2009,07,31,14,36,25.80
2009,07,31,14,37,25.80
2009,07,31,14,38,25.80
2009,07,31,14,39,25.80
2009,07,31,14,40,25.80
2009,07,31,14,41,25.70
2009,07,31,14,42,25.70
2009,07,31,14,43,25.70
2009,07,31,14,44,25.70
2009,07,31,14,45,25.60
2009,07,31,14,46,25.60
2009,07,31,14,47,25.60
2009,07,31,14,48,25.60
2009,07,31,14,49,25.70
2009,07,31,14,50,25.80
2009,07,31,14,51,25.80
2009,07,31,14,52,25.90
2009,07,31,14,53,25.90
2009,07,31,14,54,25.90
2009,07,31,14,55,26.00
2009,07,31,14,56,25.90
2009,07,31,14,57,25.80
2009,07,31,14,58,25.70
2009,07,31,14,59,25.70
2009,07,31,15,00,25.80
2009,07,31,15,01,25.90
2009,07,31,15,02,25.90
2009,07,31,15,03,25.90
2009,07,31,15,04,25.80
2009,07,31,15,05,25.70
2009,07,31,15,06,25.60
2009,07,31,15,07,25.60
2009,07,31,15,08,25.60
2009,07,31,15,09,25.60
2009,07,31,15,10,25.70
2009,07,31,15,11,25.70
2009,07,31,15,12,25.80
2009,07,31,15,13,25.80
2009,07,31,15,14,25.80
2009,07,31,15,15,25.80
2009,07,31,15,16,25.80
2009,07,31,15,17,25.90
2009,07,31,15,18,25.90
2009,07,31,15,19,26.00
2009,07,31,15,20,25.90
2009,07,31,15,21,25.90
2009,07,31,15,22,25.90
2009,07,31,15,23,25.90
2009,07,31,15,24,25.90
2009,07,31,15,25,25.90
2009,07,31,15,26,25.80
2009,07,31,15,27,25.90
2009,07,31,15,28,26.00
2009,07,31,15,29,26.00
2009,07,31,15,30,25.90
2009,07,31,15,31,25.90
2009,07,31,15,32,25.90
2009,07,31,15,33,25.90
2009,07,31,15,34,25.90
2009,07,31,15,35,25.90
2009,07,31,15,36,26.00
2009,07,31,15,37,26.10
2009,07,31,15,38,26.00
2009,07,31,15,39,26.00
2009,07,31,15,40,25.90
2009,07,31,15,41,25.90
2009,07,31,15,42,25.90
2009,07,31,15,43,25.90
2009,07,31,15,44,25.90
2009,07,31,15,45,26.00
2009,07,31,15,46,26.20
2009,07,31,15,47,26.30
2009,07,31,15,48,26.40
2009,07,31,15,49,26.40
2009,07,31,15,50,26.40
2009,07,31,15,51,26.40
2009,07,31,15,52,26.40
2009,07,31,15,53,26.50
2009,07,31,15,54,26.60
2009,07,31,15,55,26.60
2009,07,31,15,56,26.70
2009,07,31,15,57,26.80
2009,07,31,15,58,26.90
2009,07,31,15,59,26.90
2009,07,31,16,00,26.90
2009,07,31,16,01,26.80
2009,07,31,16,02,26.80
2009,07,31,16,03,26.80
2009,07,31,16,04,26.80
2009,07,31,16,05,26.80
2009,07,31,16,06,26.80
2009,07,31,16,07,26.80
2009,07,31,16,08,26.80
2009,07,31,16,09,26.90
2009,07,31,16,10,26.90
2009,07,31,16,11,27.00
2009,07,31,16,12,27.10
2009,07,31,16,13,27.10
2009,07,31,16,14,27.10
2009,07,31,16,15,27.00
2009,07,31,16,16,26.90
2009,07,31,16,17,26.90
2009,07,31,16,18,26.90
2009,07,31,16,19,26.90
2009,07,31,16,20,26.90
2009,07,31,16,21,26.80
2009,07,31,16,22,26.80
2009,07,31,16,23,26.80
2009,07,31,16,24,26.80
2009,07,31,16,25,26.80
2009,07,31,16,26,26.70
2009,07,31,16,27,26.70
2009,07,31,16,28,26.70
2009,07,31,16,29,26.60
2009,07,31,16,30,26.50
2009,07,31,16,31,26.40
2009,07,31,16,32,26.40
2009,07,31,16,33,26.50
2009,07,31,16,34,26.60
2009,07,31,16,35,26.60
2009,07,31,16,36,26.50
2009,07,31,16,37,26.60
2009,07,31,16,38,26.60
2009,07,31,16,39,26.70
2009,07,31,16,40,26.80
2009,07,31,16,41,26.90
2009,07,31,16,42,26.90
2009,07,31,16,43,26.90
2009,07,31,16,44,26.90
2009,07,31,16,45,26.90
2009,07,31,16,46,26.90
2009,07,31,16,47,26.90
2009,07,31,16,48,26.90
2009,07,31,16,49,26.90
2009,07,31,16,50,27.10
2009,07,31,16,51,27.00
2009,07,31,16,52,26.90
2009,07,31,16,53,26.90
2009,07,31,16,54,26.90
2009,07,31,16,55,26.90
2009,07,31,16,56,26.90
2009,07,31,16,57,27.10
2009,07,31,16,58,27.10
2009,07,31,16,59,27.10
2009,07,31,17,00,27.10
2009,07,31,17,01,27.10
2009,07,31,17,02,27.10
2009,07,31,17,03,27.10
2009,07,31,17,04,27.00
2009,07,31,17,05,26.90
2009,07,31,17,06,26.80
2009,07,31,17,07,26.70
2009,07,31,17,08,26.70
2009,07,31,17,09,26.70
2009,07,31,17,10,26.70
2009,07,31,17,11,26.80
2009,07,31,17,12,26.80
2009,07,31,17,13,26.80
2009,07,31,17,14,26.80
2009,07,31,17,15,26.90
2009,07,31,17,16,26.90
2009,07,31,17,17,27.00
2009,07,31,17,18,26.90
2009,07,31,17,19,26.90